Regional Weather Roundup
Issued by NWS Portland, ME

Current Version | Previous Version | Text Only | Print | Product List | Glossary On
Versions: 1 2 3 4 5 6 7 8 9 10 11 12 13 14 15 16 17 18 19 20 21 22 23 24 25 26 27 28 29 30 31 32 33 34 35 36 37 38 39 40 41 42 43 44 45 46 47 48 49 50
000
ASUS41 KGYX 191810
RWRGYX
WEATHER ROUNDUP FOR MAINE AND NEW HAMPSHIRE
NATIONAL WEATHER SERVICE GRAY ME
100 PM EST SAT JAN 19 2019

MEZ002-005-006-010-012-015-018-020-021-024-026-027-029-191900-
MAINE

CITY           SKY/WX    TMP DP  RH WIND       PRES   REMARKS
PORTLAND       PTSUNNY   24   7  48 E12       30.31F WCI  13
6HR MIN TEMP:  18; 6HR MAX TEMP:  25;

SANFORD        FAIR      29  14  53 S6        30.27F
BAR HARBOR     FAIR      15  -4  42 N8        30.35S
WISCASSET      FAIR      20  -5  33 VRB3      30.34F
6HR MIN TEMP:  16; 6HR MAX TEMP:  21;

ROCKLAND       FAIR      18  -7  32 N6        30.34S
FRYEBURG       CLOUDY    21   7  54 NE8       30.25F
6HR MIN TEMP:   9; 6HR MAX TEMP:  21;

LEWISTONAUBURN FAIR      21  -2  36 NE8       30.29F
AUGUSTA        FAIR      16  -6  37 VRB5      30.31F
6HR MIN TEMP:  10; 6HR MAX TEMP:  16;

WATERVILLE     CLOUDY    13  -8  39 MISG      30.30F
BANGOR         PTSUNNY   12  -4  48 NE8       30.35F
6HR MIN TEMP:   6; 6HR MAX TEMP:  12;

GREENVILLE       N/A     -2 -15  54 N12       30.19F WCI -20
6HR MIN TEMP:  -6; 6HR MAX TEMP:  -2;

MILLINOCKET    FAIR       5  -8  55 NW6       30.35F
6HR MIN TEMP:   0; 6HR MAX TEMP:   5;

HOULTON        FAIR      -2 -18  46 N12       30.34F WCI -20
6HR MIN TEMP:  -6; 6HR MAX TEMP:  -2;

PRESQUE ISLE   FAIR      -4 -19  48 N9        30.36F
6HR MIN TEMP: -11; 6HR MAX TEMP:  -3;

FRENCHVILLE    FAIR      -8 -24  45 NW14      30.29F WCI -29
6HR MIN TEMP: -14; 6HR MAX TEMP:  -8;

CARIBOU        FAIR      -6 -21  48 N9        30.34F
6HR MIN TEMP: -11; 6HR MAX TEMP:  -6;

$$

NHZ002-005-008-009-011-012-014-191900-
NEW HAMPSHIRE

CITY           SKY/WX    TMP DP  RH WIND       PRES   REMARKS
PORTSMOUTH     CLOUDY    28   6  38 CALM      30.27F
ROCHESTER      PTSUNNY   28   7  41 NW5       30.26F
6HR MIN TEMP:  20; 6HR MAX TEMP:  28;

NASHUA         PTSUNNY   30  14  51 NE5       30.27F
MANCHESTER     CLOUDY    27  10  49 SE3       30.25F
6HR MIN TEMP:  22; 6HR MAX TEMP:  28;

CONCORD        CLOUDY    26  11  52 N5        30.25F
6HR MIN TEMP:  19; 6HR MAX TEMP:  26;

LACONIA        CLOUDY    25   8  48 S3        30.24F
PLYMOUTH       CLOUDY    18   5  55 NW8       30.25F
BERLIN         CLOUDY    12  -6  44 N3        30.22F
6HR MIN TEMP:   1; 6HR MAX TEMP:  12;

WHITEFIELD     CLOUDY    11  -3  53 N3        30.23F
6HR MIN TEMP:   1; 6HR MAX TEMP:  11;

JAFFREY        CLOUDY    26  13  57 CALM      30.18F
6HR MIN TEMP:  21; 6HR MAX TEMP:  26;

KEENE          CLOUDY    27  13  55 CALM      30.22F
LEBANON        CLOUDY    17   4  56 N7        30.26F
6HR MIN TEMP:  15; 6HR MAX TEMP:  19;

MT WASHINGTON  FLURRIES   5 -20  30 W33         N/A  WCI -20
6HR MIN TEMP:  -6; 6HR MAX TEMP:   7; 6HR PCP: TRACE;

$$

VTZ005-007-008-191900-
VERMONT

CITY           SKY/WX    TMP DP  RH WIND       PRES   REMARKS
ST JOHNSBURY     N/A      9  -5  53 MISG      30.26F
MONTPELIER     CLOUDY     6  -2  69 NE3       30.27F
BURLINGTON     CLOUDY    -1 -11  62 NW12      30.36F WCI -18
$$

MAZ007-012-024-CTZ003-RIZ002-NYZ038-NYZ072-191900-
SOUTHERN NEW ENGLAND AND NY

CITY           SKY/WX    TMP DP  RH WIND       PRES   REMARKS
BOSTON         CLOUDY    31  13  47 E9        30.28F
WORCESTER      PTSUNNY   27  14  58 NE6       30.19F
NANTUCKET      CLOUDY    36  28  73 NE10      30.24F
PROVIDENCE     PTSUNNY   36  20  52 VRB7      30.25F
HARTFORD       CLOUDY    33  17  51 VRB5      30.22F
ALBANY         CLOUDY    19   6  57 N9        30.26F
NEW YORK CITY  CLOUDY    36  22  56 NE14      30.20F
$$

ANZ081-ANZ082-ANZ150-NHZ014-MEZ023>029-191900-
COASTAL MARINE OBSERVATIONS

STATION/POSITION TIME  TEMP    WIND        PRES    WAVE
                       AIR SEA DIR/SP/G            HT/PER
                 (UTC) (F)     (DEG/KT/KT) (MB)    (FT/S)
MOUNT DESERT ROC 1800   17     360/ 10/ 13 1027.1F
MATINICUS ROCK   1800   18     360/ 13/ 16 1026.8F
ISLE OF SHOALS   1800   26      60/  7/  9 1025.3F
JEFFREYS LEDGE   1738      44                N/A     4/ 6
CASHES LEDGE BUO 1750   24 40              1026.6F   4/ 5
$$

.............KEY..............
   WCI - WIND CHILL
   TC  - TEMPERATURE IN CELSIUS
   VSB - VISIBILITY IN MILES
   HX  - HEAT INDEX
   FAIR- INDICATES FEW OR NO CLOUDS BELOW 12,000 FT, WITH NO
         SIGNIFICANT WEATHER AND/OR OBSTRUCTIONS TO VISIBILITY.






USA.gov is the U.S. government's official web portal to all federal, state and local government web resources and services.